Location: Freistadt
(48.5112°N, 14.5013°E)
Time: 08:21:41
(UTC+01:00)

N. Korean satellite - Pass Details

Date: 01 December 2022
Orbit: 407 x 442 km, 97.3° (Epoch: 04 February)

Event Time Altitude Azimuth Distance (km) Brightness Sun altitude
Rises 16:58:51 0° 188° (S) 2,434 10.6 -8.1°
Reaches altitude 10° 17:01:00 10° 199° (SSW) 1,580 9.8 -8.4°
Maximum altitude 17:04:03 31° 264° (W) 830 8.6 -8.8°
Drops below altitude 10° 17:07:12 10° 328° (NNW) 1,621 9.3 -9.3°
Sets 17:09:26 0° 339° (NNW) 2,511 10.2 -9.7°
